G4MDP-13 Weather Reports


time (UTC)temp
C
wind
direction
speed
KPH
gust
KPH
rain 1hr
cm
rain 24hr
cm
rain mn
cm
humidity
%
barometer
mb
20260510112613 11 91 6.4 27.4 0.00 0.05 0.05 77 1009.1
20260510112610 11 91 6.4 27.4 0.00 0.05 0.05 77 1009.1
20260510111209 11 114 6.4 12.9 0.00 0.05 0.05 74 1009.5
20260510111110 11 120 6.4 11.3 0.00 0.05 0.05 74 1009.2
20260510105612 11 126 6.4 12.9 0.00 0.05 0.05 73 1009.5
20260510105610 11 126 6.4 12.9 0.00 0.05 0.05 73 1009.5
20260510104209 11 147 8.0 16.1 0.00 0.05 0.05 76 1009.8
20260510104110 11 147 8.0 16.1 0.00 0.05 0.05 76 1009.8
20260510102613 11 143 6.4 17.7 0.00 0.05 0.05 75 1009.4
20260510102610 11 143 6.4 17.7 0.00 0.05 0.05 75 1009.4
20260510101209 11 144 6.4 9.7 0.00 0.05 0.05 76 1009.7
20260510101110 11 143 6.4 9.7 0.00 0.05 0.05 76 1009.8
20260510095614 11 137 6.4 12.9 0.00 0.03 0.03 78 1009.9
20260510095610 11 137 6.4 12.9 0.00 0.03 0.03 78 1009.9
20260510094209 11 142 6.4 9.7 0.03 0.03 0.03 80 1010.0
20260510094110 11 142 6.4 9.7 0.03 0.03 0.03 80 1010.1
20260510092612 10 132 6.4 11.3 0.03 0.03 0.03 83 1009.9
20260510092610 10 132 6.4 11.3 0.03 0.03 0.03 83 1009.9
20260510091209 10 124 6.4 11.3 0.03 0.03 0.03 83 1010.0
20260510091110 10 115 6.4 11.3 0.03 0.03 0.03 83 1009.7
20260510085610 10 111 6.4 16.1 0.03 0.03 0.03 83 1009.7
20260510084209 10 114 6.4 19.3 0.00 0.00 0.00 83 1009.5
20260510084110 10 113 6.4 19.3 0.00 0.00 0.00 83 1009.4
20260510082613 10 109 6.4 14.5 0.00 0.00 0.00 81 1009.7
20260510082610 10 109 6.4 14.5 0.00 0.00 0.00 81 1009.7
20260510081209 10 133 6.4 11.3 0.00 0.00 0.00 80 1010.0
20260510081110 10 141 6.4 11.3 0.00 0.00 0.00 79 1010.0
20260510075612 11 125 4.8 11.3 0.00 0.00 0.00 77 1009.8
20260510075610 11 125 4.8 11.3 0.00 0.00 0.00 77 1009.8
20260510074209 11 125 4.8 9.7 0.00 0.00 0.00 75 1009.7
20260510074110 11 127 4.8 11.3 0.00 0.00 0.00 75 1009.7
20260510072612 10 123 6.4 11.3 0.00 0.00 0.00 74 1009.8
20260510072610 10 123 6.4 11.3 0.00 0.00 0.00 74 1009.8
20260510071810 10 139 6.4 11.3 0.00 0.00 0.00 74 1009.5
20260510071412 10 136 6.4 11.3 0.00 0.00 0.00 75 1009.7
20260510071410 10 136 6.4 11.3 0.00 0.00 0.00 75 1009.7
20260510071210 10 131 6.4 12.9 0.00 0.00 0.00 75 1009.5
20260510071145 10 132 6.4 12.9 0.00 0.00 0.00 75 1009.7
20260510071143 10 132 6.4 12.9 0.00 0.00 0.00 75 1009.7
20260510071133 10 132 6.4 12.9 0.00 0.00 0.00 75 1009.7
20260510070259 10 122 6.4 12.9 0.00 0.00 0.00 75 1009.6
20260510070200 10 116 6.4 12.9 0.00 0.00 0.00 75 1009.9
20260510070159 10 116 6.4 12.9 0.00 0.00 0.00 75 1009.9
20260510064700 10 133 6.4 11.3 0.00 0.00 0.00 75 1009.9
20260510064659 10 133 6.4 11.3 0.00 0.00 0.00 75 1009.9
20260510063259 10 133 4.8 12.9 0.00 0.00 0.00 76 1010.1
20260510063200 10 134 4.8 12.9 0.00 0.00 0.00 76 1010.1
20260510063159 10 134 4.8 12.9 0.00 0.00 0.00 76 1010.1
20260510061700 10 115 6.4 11.3 0.00 0.00 0.00 77 1009.8
20260510061659 10 115 6.4 11.3 0.00 0.00 0.00 77 1009.8
20260510060259 10 127 6.4 12.9 0.00 0.00 0.00 77 1010.0
20260510060200 10 130 6.4 12.9 0.00 0.00 0.00 77 1009.9
20260510060159 10 130 6.4 12.9 0.00 0.00 0.00 77 1009.9
20260510054700 10 141 4.8 9.7 0.00 0.00 0.00 77 1010.1
20260510054659 10 141 4.8 9.7 0.00 0.00 0.00 77 1010.1
20260510053259 10 135 4.8 9.7 0.00 0.00 0.00 77 1009.9
20260510053200 10 135 4.8 9.7 0.00 0.00 0.00 77 1009.9
20260510053159 10 135 4.8 9.7 0.00 0.00 0.00 77 1009.9
20260510051700 10 149 6.4 12.9 0.00 0.00 0.00 77 1009.8
20260510051659 10 149 6.4 12.9 0.00 0.00 0.00 77 1009.8
20260510050259 10 144 6.4 9.7 0.00 0.00 0.00 77 1009.8
20260510050200 10 145 6.4 9.7 0.00 0.00 0.00 77 1009.9
20260510050159 10 145 6.4 9.7 0.00 0.00 0.00 77 1009.9
20260510044700 10 137 6.4 16.1 0.00 0.00 0.00 77 1010.0
20260510044659 10 137 6.4 16.1 0.00 0.00 0.00 77 1010.0
20260510043259 10 131 4.8 9.7 0.00 0.00 0.00 77 1010.0
20260510043200 10 132 4.8 9.7 0.00 0.00 0.00 77 1009.9
20260510043159 10 132 4.8 9.7 0.00 0.00 0.00 77 1009.9
20260510041700 10 123 6.4 9.7 0.00 0.00 0.00 78 1010.0
20260510041659 10 123 6.4 9.7 0.00 0.00 0.00 78 1010.0
20260510040259 10 134 4.8 9.7 0.00 0.00 0.00 78 1009.9
20260510040200 10 138 4.8 9.7 0.00 0.00 0.00 78 1010.0
20260510040159 10 138 4.8 9.7 0.00 0.00 0.00 78 1010.0
20260510034700 11 130 4.8 9.7 0.00 0.00 0.00 78 1010.0
20260510034659 11 130 4.8 9.7 0.00 0.00 0.00 78 1010.0
20260510033259 11 146 4.8 11.3 0.00 0.00 0.00 78 1010.1
20260510033200 11 138 4.8 11.3 0.00 0.00 0.00 78 1010.3
20260510033159 11 138 4.8 11.3 0.00 0.00 0.00 78 1010.3
20260510031700 11 124 4.8 9.7 0.00 0.00 0.00 77 1010.2
20260510031659 11 124 4.8 9.7 0.00 0.00 0.00 77 1010.2
20260510030259 11 143 4.8 9.7 0.00 0.00 0.00 77 1010.3
20260510030200 11 142 6.4 9.7 0.00 0.00 0.00 77 1010.1
20260510030159 11 142 6.4 9.7 0.00 0.00 0.00 77 1010.1
20260510024700 11 134 6.4 9.7 0.00 0.00 0.00 76 1010.2
20260510024659 11 134 6.4 9.7 0.00 0.00 0.00 76 1010.2
20260510023259 11 132 4.8 9.7 0.00 0.00 0.00 75 1010.5
20260510023200 11 138 4.8 9.7 0.00 0.00 0.00 75 1010.4
20260510023159 11 138 4.8 9.7 0.00 0.00 0.00 75 1010.4
20260510021700 11 143 4.8 8.0 0.00 0.00 0.00 73 1010.2
20260510020259 12 142 6.4 9.7 0.00 0.00 0.00 71 1010.4
20260510020200 12 141 6.4 9.7 0.00 0.00 0.00 71 1010.3
20260510020159 12 141 6.4 9.7 0.00 0.00 0.00 71 1010.3
20260510014700 12 154 6.4 11.3 0.00 0.00 0.00 69 1010.6
20260510014659 12 154 6.4 11.3 0.00 0.00 0.00 69 1010.6
20260510013259 12 151 6.4 9.7 0.00 0.00 0.00 67 1010.4
20260510013200 12 154 6.4 9.7 0.00 0.00 0.00 67 1010.4
20260510013159 12 154 6.4 9.7 0.00 0.00 0.00 67 1010.4
20260510011700 12 154 6.4 8.0 0.00 0.00 0.00 64 1010.5
20260510011659 12 154 6.4 8.0 0.00 0.00 0.00 64 1010.5
20260510010259 12 155 6.4 9.7 0.00 0.00 0.00 62 1010.4
20260510010200 12 157 6.4 9.7 0.00 0.00 0.00 62 1010.4
20260510010159 12 157 6.4 9.7 0.00 0.00 0.00 62 1010.4
20260510004700 12 141 6.4 9.7 0.00 0.00 0.00 60 1010.1
20260510004659 12 141 6.4 9.7 0.00 0.00 0.00 60 1010.1
20260510003259 12 149 6.4 9.7 0.00 0.00 0.00 58 1010.1
20260510003200 12 150 6.4 9.7 0.00 0.00 0.00 57 1010.2
20260510003159 12 150 6.4 9.7 0.00 0.00 0.00 57 1010.2
20260510001700 12 155 6.4 11.3 0.00 0.00 0.00 55 1010.0
20260510001659 12 155 6.4 11.3 0.00 0.00 0.00 55 1010.0
20260510000259 13 154 6.4 11.3 0.00 0.00 0.00 54 1010.2
20260510000200 13 155 6.4 11.3 0.00 0.00 0.00 54 1010.0
20260510000159 13 155 6.4 11.3 0.00 0.00 0.00 54 1010.0
20260509234700 13 148 6.4 9.7 0.00 0.00 0.00 52 1010.1
20260509234659 13 148 6.4 9.7 0.00 0.00 0.00 52 1010.1
20260509233259 13 130 6.4 11.3 0.00 0.00 0.00 50 1010.1
20260509233200 13 133 6.4 11.3 0.00 0.00 0.00 50 1010.0
20260509233159 13 133 6.4 11.3 0.00 0.00 0.00 50 1010.0
20260509231700 13 154 4.8 11.3 0.00 0.00 0.00 49 1009.8
20260509231659 13 154 4.8 11.3 0.00 0.00 0.00 49 1009.8
20260509230259 13 150 6.4 11.3 0.00 0.00 0.00 48 1009.9
20260509230200 13 147 6.4 11.3 0.00 0.00 0.00 48 1010.1
20260509230159 13 147 6.4 11.3 0.00 0.00 0.00 48 1010.1
20260509224700 13 148 4.8 11.3 0.00 0.00 0.00 46 1010.1
20260509224659 13 148 4.8 11.3 0.00 0.00 0.00 46 1010.1
20260509223259 13 139 6.4 11.3 0.00 0.00 0.00 45 1009.9
20260509223200 13 141 6.4 11.3 0.00 0.00 0.00 45 1010.1
20260509223159 13 141 6.4 11.3 0.00 0.00 0.00 45 1010.1
20260509221700 13 144 4.8 12.9 0.00 0.00 0.00 44 1009.8
20260509221659 13 144 4.8 12.9 0.00 0.00 0.00 44 1009.8
20260509220259 13 143 6.4 11.3 0.00 0.00 0.00 44 1010.0
20260509220200 13 145 6.4 11.3 0.00 0.00 0.00 43 1010.0
20260509220159 13 145 6.4 11.3 0.00 0.00 0.00 43 1010.0
20260509214700 13 127 6.4 12.9 0.00 0.00 0.00 43 1010.1
20260509214659 13 127 6.4 12.9 0.00 0.00 0.00 43 1010.1
20260509213259 13 155 4.8 14.5 0.00 0.00 0.00 42 1010.0
20260509213200 13 155 4.8 14.5 0.00 0.00 0.00 42 1010.0
20260509213159 13 155 4.8 14.5 0.00 0.00 0.00 42 1010.0
20260509211700 13 159 6.4 9.7 0.00 0.00 0.00 44 1009.7
20260509211659 13 159 6.4 9.7 0.00 0.00 0.00 44 1009.7
20260509210259 13 141 6.4 11.3 0.00 0.00 0.00 45 1009.8
20260509210200 13 141 6.4 11.3 0.00 0.00 0.00 45 1009.8
20260509210159 13 141 6.4 11.3 0.00 0.00 0.00 45 1009.8
20260509204700 14 146 4.8 9.7 0.00 0.00 0.00 47 1009.6
20260509204659 14 146 4.8 9.7 0.00 0.00 0.00 47 1009.6
20260509203259 14 133 4.8 9.7 0.00 0.00 0.00 47 1009.6
20260509203200 14 128 4.8 9.7 0.00 0.00 0.00 47 1009.5
20260509203159 14 128 4.8 9.7 0.00 0.00 0.00 47 1009.5
20260509201700 15 133 4.8 14.5 0.00 0.00 0.00 46 1009.5
20260509201659 15 133 4.8 14.5 0.00 0.00 0.00 46 1009.5
20260509200259 15 146 4.8 11.3 0.00 0.00 0.00 46 1009.3
20260509200200 15 145 4.8 11.3 0.00 0.00 0.00 46 1009.0
20260509200159 15 145 4.8 11.3 0.00 0.00 0.00 46 1009.0
20260509194700 15 141 4.8 9.7 0.00 0.00 0.00 47 1009.0
20260509194659 15 141 4.8 9.7 0.00 0.00 0.00 47 1009.0
20260509193259 15 150 4.8 9.7 0.00 0.00 0.00 47 1009.1
20260509193200 16 149 4.8 9.7 0.00 0.00 0.00 47 1009.3
20260509193159 16 149 4.8 9.7 0.00 0.00 0.00 47 1009.3
20260509191700 16 147 6.4 11.3 0.00 0.00 0.00 45 1009.2
20260509191659 16 147 6.4 11.3 0.00 0.00 0.00 45 1009.2
20260509190259 16 152 4.8 12.9 0.00 0.00 0.00 45 1009.1
20260509190200 16 153 4.8 12.9 0.00 0.00 0.00 45 1009.2
20260509190159 16 153 4.8 12.9 0.00 0.00 0.00 45 1009.2
20260509184700 17 141 4.8 9.7 0.00 0.00 0.00 45 1009.1
20260509184659 17 141 4.8 9.7 0.00 0.00 0.00 45 1009.1
20260509183259 17 158 4.8 11.3 0.00 0.00 0.00 46 1009.1
20260509183200 17 161 4.8 11.3 0.00 0.00 0.00 46 1009.4
20260509183159 17 161 4.8 11.3 0.00 0.00 0.00 46 1009.4
20260509181700 18 152 4.8 9.7 0.00 0.00 0.00 44 1009.0
20260509181659 18 152 4.8 9.7 0.00 0.00 0.00 44 1009.0
20260509180259 18 160 4.8 12.9 0.00 0.00 0.00 44 1008.7
20260509180200 18 162 4.8 12.9 0.00 0.00 0.00 44 1008.7
20260509180159 18 162 4.8 12.9 0.00 0.00 0.00 44 1008.7
20260509174702 19 156 4.8 8.0 0.00 0.00 0.00 44 1008.9
20260509174700 19 156 4.8 8.0 0.00 0.00 0.00 44 1008.9
20260509173259 20 178 4.8 8.0 0.00 0.00 0.00 43 1008.7
20260509173200 20 177 4.8 8.0 0.00 0.00 0.00 42 1008.8
20260509173159 20 177 4.8 8.0 0.00 0.00 0.00 42 1008.8
20260509171702 21 179 4.8 8.0 0.00 0.00 0.00 40 1008.6
20260509171700 21 179 4.8 8.0 0.00 0.00 0.00 40 1008.6
20260509170259 21 176 4.8 9.7 0.00 0.00 0.00 38 1008.6
20260509170200 21 176 4.8 9.7 0.00 0.00 0.00 38 1008.6
20260509170159 21 176 4.8 9.7 0.00 0.00 0.00 38 1008.6
20260509164702 22 177 4.8 9.7 0.00 0.00 0.00 38 1008.6
20260509164700 22 177 4.8 9.7 0.00 0.00 0.00 38 1008.6
20260509163259 22 182 4.8 8.0 0.00 0.00 0.00 36 1008.6
20260509163200 22 182 4.8 8.0 0.00 0.00 0.00 36 1008.6
20260509163159 22 182 4.8 8.0 0.00 0.00 0.00 36 1008.6
20260509161702 22 180 4.8 8.0 0.00 0.00 0.00 37 1008.6
20260509161700 22 180 4.8 8.0 0.00 0.00 0.00 37 1008.6
20260509160259 21 174 4.8 8.0 0.00 0.00 0.00 38 1008.4
20260509160200 22 175 4.8 9.7 0.00 0.00 0.00 37 1008.4
20260509160159 22 175 4.8 9.7 0.00 0.00 0.00 37 1008.4
20260509154702 23 181 6.4 12.9 0.00 0.00 0.00 35 1008.5
20260509154700 23 181 6.4 12.9 0.00 0.00 0.00 35 1008.5
20260509153259 22 174 6.4 9.7 0.00 0.00 0.00 36 1008.7
20260509153203 22 173 4.8 9.7 0.00 0.00 0.00 36 1008.7
20260509153200 22 173 4.8 9.7 0.00 0.00 0.00 36 1008.7
20260509151700 22 159 6.4 9.7 0.00 0.00 0.00 37 1008.9
20260509150259 22 178 6.4 11.3 0.00 0.00 0.00 36 1009.0
20260509150200 23 176 6.4 11.3 0.00 0.00 0.00 36 1009.0
20260509150159 23 176 6.4 11.3 0.00 0.00 0.00 36 1009.0
20260509144704 22 168 8.0 14.5 0.00 0.00 0.00 37 1009.3
20260509144700 22 168 8.0 14.5 0.00 0.00 0.00 37 1009.3
20260509143259 22 173 8.0 12.9 0.00 0.00 0.00 38 1009.4
20260509143200 22 174 8.0 12.9 0.00 0.00 0.00 39 1009.3
20260509143159 22 174 8.0 12.9 0.00 0.00 0.00 39 1009.3
20260509141700 22 171 6.4 9.7 0.00 0.00 0.00 38 1009.4
20260509140259 21 168 6.4 11.3 0.00 0.00 0.00 41 1009.3
20260509140200 21 169 6.4 11.3 0.00 0.00 0.00 41 1009.3
20260509140159 21 169 6.4 11.3 0.00 0.00 0.00 41 1009.3
20260509134700 23 174 6.4 9.7 0.00 0.00 0.00 39 1008.9
20260509133259 24 183 4.8 11.3 0.00 0.00 0.00 36 1009.1
20260509133200 23 183 4.8 8.0 0.00 0.00 0.00 35 1009.0
20260509133159 23 183 4.8 8.0 0.00 0.00 0.00 35 1009.0
20260509131702 22 175 4.8 9.7 0.00 0.00 0.00 36 1009.1
20260509131700 22 175 4.8 9.7 0.00 0.00 0.00 36 1009.1
20260509130259 24 184 4.8 9.7 0.00 0.00 0.00 34 1009.5
20260509130200 24 183 4.8 9.7 0.00 0.00 0.00 34 1009.5
20260509130159 24 183 4.8 9.7 0.00 0.00 0.00 34 1009.5
20260509124700 23 175 4.8 9.7 0.00 0.00 0.00 33 1009.4
20260509123259 21 175 3.2 11.3 0.00 0.00 0.00 36 1009.5
20260509123200 21 174 4.8 11.3 0.00 0.00 0.00 37 1009.3
20260509123159 21 174 4.8 11.3 0.00 0.00 0.00 37 1009.3
20260509121702 22 184 4.8 8.0 0.00 0.00 0.00 36 1009.7
20260509121700 22 184 4.8 8.0 0.00 0.00 0.00 36 1009.7
20260509120259 22 174 4.8 11.3 0.00 0.00 0.00 36 1009.8
20260509120200 22 177 4.8 11.3 0.00 0.00 0.00 35 1009.7
20260509120159 22 177 4.8 11.3 0.00 0.00 0.00 35 1009.7
20260509114700 21 165 4.8 8.0 0.00 0.00 0.00 39 1010.1